Погода в Чаршанге

Погода в Чаршанге : погода сейчас, прогноз погоды и архив. Всё, что Вы хотите узнать о погоде в Чаршанге!

Хотите узнать прогноз погоды в Чаршанге? Тогда Вам сюда: Погода в Чаршанге

Поиск расширенной информации на нашем сайте:

Другие новости

Новости СМИ2

Главная страница сайта

Новости сайта

03.07.2017

Напоминаем, что на нашем специализированном сайте Метеоцентр.Азия вы можете получить высокодетализированные автоматические прогнозы погоды по пунктам России, СНГ и мира в авиационном формате (включающие направление и скорость ветра, видимость, явления погоды, количество и форму облачности, нижнюю и верхнюю границу облачности).

Рекомендуем: промокод ebay август 2015

Погода в Чаршанге - сегодня

Время (UTC), дата Ветер
(°,м/с) 
Видим.   Явления Облачность Т
(°С)
Тd
(°С)
f(%) Тe
(°С)
Pmin
(гПа)
dP
(гПа)
Po
(мм)
O2
(г/м3)
Тmin Tmax R s Состояние
почвы
18 16.09.17 320 (СЗ) 10 км    ясно 
+24.8 -0.2 19 +25  1013.5  -0.2  737  272    +32.3       
21 16.09.17 330 (СЗ) 10 км    ясно 
+22.2 +0.4 24 +22  1013.7  -0.1  737  275           
00 17.09.17 240 (ЮЗ) 10 км    ясно 
+15.8 +7.1 56 +17  1015  0.6  738  280           
03 17.09.17 тихо ()   10 км    ясно 
+16 +7.4 57 +16  1016.1  1.1  739  280           
06 17.09.17 310 (СЗ) 10 км    ясно 
+27.6 +8.9 31 +28  1016.2  1.4  740  269  +14         
09 17.09.17 330 (СЗ) 10 км    ясно 
+31.7 +1.7 15 +32  1014.4  -1.4  739  266           
12 17.09.17 290 (З) 10 км    ясно 
+31.2 +1.7 15 +31  1013.7  -0.8  738  267           
15 17.09.17 320 (СЗ) 10 км    ясно 
+25.8 +5.3 27 +26  1014.5  0.3  738  271    +32.3       
18 17.09.17 тихо ()   10 км    ясно 
+19.6 +7 44 +20  1015  -0.1  738  276    +32.3       
21 17.09.17 260 (З) 10 км    ясно 
+18 +5 42 +19  1015.6  0.3  738  278           
00 18.09.17 тихо ()   10 км    ясно 
+15 +7.1 59 +15  1016.2  0.3  739  281           
03 18.09.17 тихо ()   10 км    ясно 
+16.6 +4 43 +17  1017.4  1.4  740  280           
06 18.09.17 260 (З) 10 км    ясно 
+25.8 +4 24 +26  1016.9  0.5  740  272  +13.4         
09 18.09.17 290 (З) 10 км    ясно 
+32 +2.7 16 +32  1015.5  -0.8  739  266           
12 18.09.17 310 (СЗ) 10 км    ясно 
+32.4 +2.1 15 +32  1013.3  -2.2  738  265           
15 18.09.17 270 (З) 10 км    ясно 
+25.1 +5.6 29 +25  1014.3  0.3  738  271    +33.1       
18 18.09.17 330 (СЗ) 10 км    ясно 
+24.1 +7.4 34 +24  1014.2  -0.2  738  272    +33.1       
21 18.09.17 тихо ()   10 км    ясно 
+21.9 +7.4 39 +22  1014.1  -0.3  738  274           
00 19.09.17 тихо ()   10 км    ясно 
+17.1 +8.1 55 +17  1014.9  0.2  738  278           
03 19.09.17 тихо ()   10 км    ясно 
+18.2 +4.6 41 +18  1016  1.2  739  278           
06 19.09.17 200 (Ю) 10 км    ясно 
+26 +5.6 27 +26  1014.8  -0.3  738  271  +16.9         
09 19.09.17 тихо ()   10 км    ясно 
+32.2 +5.9 19 +32  1012.8  -1.4  737  265           
12 19.09.17 330 (СЗ) 10 км    ясно 
+33.8 +4.5 16 +34  1010.8  -1.7  736  263           
15 19.09.17 330 (СЗ) 10 км    ясно 
+27.2 +9 32 +27  1011.6  0.2  736  268    +34.2       
18 19.09.17 тихо ()   10 км    ясно 
+24 +8.5 37 +24  1012  736  271    +34.2       
Время (UTC), дата Ветер
(°,м/с) 
Видим.   Явления Облачность Т
(°С)
Тd
(°С)
f(%) Тe
(°С)
Pmin
(гПа)
dP
(гПа)
Po
(мм)
O2
(г/м3)
Тmin Tmax R s Состояние
почвы

Для получения пояснительной информации подведите курсор к названию столбца.

ПОГОДА в Чаршанге - архив

Всё, что Вы хотите узнать о погоде в Чаршанге - удобно и подробно!

Выберите нужную дату (начиная с 1 января 2015* года) и нажмите кнопку "Найти".
Будут отображены архивные сводки погоды по пункту Чаршанга, начиная с указанной даты.


Отображать данные в формате CSV (для использования в таблицах Excel)


Внимание! Наш архив погоды предназначен исключительно для личного некоммерческого использования в познавательных целях. Если Вам необходимы официальные справки о состоянии погоды (для производственных, юридических, коммерческих и т.п. целей), обращайтесь в органы Росгидромета.

*Примечание: данная дата относится к архиву по метеостанциям СССР (Россия, СНГ, Балтия).
Архив по метеостанциям Зарубежной Европы и Азии (кроме Китая) хранится 10 дней, по другим регионам земного шара (Китай, Африка, Америка, Австралия, Океания) - 1 день.

Чаршанга - район местоположения метеостанции


Название, широта, долгота, высота метеостанции:
Чаршанга 37.5°ш. 66°д. 265 м над ур. моря [Туркменистан]

Дополнительная информация

В oтличие oт бoльшинства пoгoдных сайтoв мы публикуем пoдрoбную метеoинфoрмацию в детальнoм прoфессиoнальнoм фoрмате.

Характеристики температуры и влажнoсти вoздуха измеряются на высoте 2 м в тени вдали oт зданий и деревьев.
Скoрoсть ветра измеряется на высoте 10 м (на урoвне рoста челoвека скoрoсть ветра ниже в 1.5-2 раза). Если метеoстанция нахoдится в гoрoде или в лесу, тo скoрoсть ветра занижена на 2-4 м/с пo сравнению с oткрытым местoм. Скoрoсть ветра над акватoриями крупных рек и oзёр, а также на вершинах хoлмoв на 2-5 м/с выше, чем в oбычных услoвиях.
Атмoсфернoе давление в разных тoчках местнoсти мoжет значительнo oтличаться oт давления на метеoстанции, в зависимoсти oт услoвий рельефа (при пoдъёме на 10 м давление пoнижается примернo на 1 мм рт.ст.).